Location: Pitton
(51.0667°N, 1.7000°W)
Time: 05:56:30
(UTC+00:00)

Cosmos 2366 rocket - Pass Details

Date: 17 September 2019
Orbit: 956 x 997 km, 82.9° (Epoch: 20 October)

Event Time Altitude Azimuth Distance (km) Brightness Sun altitude
Rises 20:04:48 0° 351° (N) 3,723 7.6 -17.1°
Reaches altitude 10° 20:07:22 10° 354° (N) 2,773 6.8 -17.4°
Maximum altitude 20:13:43 68° 77° (ENE) 1,074 4.0 -18.3°
Enters shadow 20:17:48 23° 155° (SSE) 1,966 5.1 -18.9°
